Find Starlink 37180

NORAD ID: 68333 Int'l Des: 2026-059 Owner: SPXS Country: US Constellation: starlink operational
LEOCIRCULAR

Current View

Loading 3D Globe...

About Starlink 37180

Starlink 37180 (NORAD 68333) is a starlink constellation satellite (v2 mini) launched Mar 22, 2026 by SPXS of US. It operates in LEO, CIRCULAR orbit with a mass of 575.00 kg.

About Starlink 37180

Description loading...

Upcoming Passes

Passes for default location (London). Set your location on the main map for personalized predictions.

Altitude History

Loading altitude history...

Two-Line Element Set

1 68333U 26059N 26171.43543981 .00017487 00000-0 52720-3 0 9995
2 68333 53.1559 226.2576 0000880 61.2298 298.8793 15.34415964 13975
Epoch: Jun 20, 2026 • Age: 26 hours

Current Status

Altitude 481.4 km
Velocity 7.62 km/s
Sub-Earth Point -52.67°S, 20.12°E
Launch Date Mar 22, 2026
Age 0.2 years
Type internet

Technical Details

Classification Payload
Mass 575.00 kg
Dry Mass 530.00 kg
Total Mass 575.00 kg
Length 0.30 m
Diameter 4.10 m
Span 29.00 m
Shape Box + pan
Manufacturer SPXS
Bus Type Starlink V2MO
Phase Status In Orbit
Owner/State SPXS/US

Most Searched